Flag for Canada Weather past 2 weeks in Laval, Quebec, Canada

Now
16 °F

Overcast.


Feels Like: 6 °F
Forecast: N/A
Wind: 7 mph from Northeast

Location: Montreal / Mirabel

Current Time: Jan 29, 2015 at 5:43:24 PM

Latest Report: Jan 29, 2015 at 5:00 PM


Visibility: 15 mi

Pressure: 29.98 "Hg

Humidity: 53%

Dew point: 1 °F

Location of LavalLocation

Historic Weather in Laval — Graph

°F

Laval temperature yesterday

Maximum temperature yesterday: 19 °F (at 4:00 PM)
Minimum temperature yesterday: 3 °F (at 6:00 AM)
Average temperature yesterday: 10 °F

Past Weeks' High & Low Weather Summary

 TemperatureHumidityPressure
High32 °F (Jan 19, 10:00 AM)100% (Jan 18, 8:54 PM)30.44 "Hg (Jan 18, 8:54 PM)
Low-17 °F (Jan 17, 7:00 AM)31% (Jan 27, 3:00 PM)29.30 "Hg (Jan 25, 1:00 AM)
Average9 °F67%30.01 "Hg
* Reported Jan 14 4:00 PM — Jan 29 4:00 PM, Laval, Weather by CustomWeather, © 2014

Note: Actual official high and low records may vary slightly from our data, if they occured in-between our weather recording intervals... More about our weather records

Advertising

Laval weather history for previous 24 hours

 ConditionsComfort  
Time TempWeatherWind HumidityBarometerVisibility
4:00 PM
Jan 29
14 °FMore clouds than sun.7 mph57%30.01 "Hg15 mi
3:00 PM14 °FMore clouds than sun.6 mph57%30.03 "Hg15 mi
2:00 PM14 °FMostly cloudy.8 mph57%30.05 "Hg20 mi
1:00 PM14 °FMostly cloudy.6 mph52%30.09 "Hg25 mi
12:00 PM12 °FMore clouds than sun.7 mph52%30.14 "Hg25 mi
11:00 AM10 °FMore clouds than sun.6 mph56%30.21 "Hg20 mi
10:00 AM5 °FOvercast.3 mph66%30.24 "Hg25 mi
9:00 AM1 °FOvercast.6 mph65%30.27 "Hg25 mi
8:00 AM0 °FOvercast.2 mph71%30.29 "Hg25 mi
7:00 AM-2 °FPassing clouds.2 mph71%30.29 "Hg35 mi
6:00 AM-2 °FPassing clouds.2 mph65%30.29 "Hg25 mi
5:00 AM-2 °FPassing clouds.3 mph71%30.30 "Hg25 mi
4:00 AM1 °FPassing clouds.5 mph60%30.30 "Hg25 mi
3:00 AM5 °FPassing clouds.6 mph55%30.31 "Hg25 mi
2:00 AM7 °FPassing clouds.7 mph51%30.31 "Hg25 mi
1:00 AM5 °FClear.5 mph55%30.31 "Hg25 mi
12:00 AM5 °FClear.8 mph60%30.30 "Hg25 mi
11:00 PM
Jan 28
7 °FClear.8 mph56%30.31 "Hg25 mi
10:00 PM9 °FClear.8 mph51%30.30 "Hg25 mi
9:00 PM10 °FClear.8 mph47%30.28 "Hg25 mi
8:00 PM10 °FClear.9 mph47%30.28 "Hg25 mi
7:00 PM12 °FClear.9 mph48%30.27 "Hg25 mi
6:00 PM16 °FClear.6 mph41%30.25 "Hg25 mi
5:00 PM16 °FClear.5 mph45%30.23 "Hg25 mi
Weather by CustomWeather, © 2014

See weather overviewHow to use our weather pages